Location: Unspecified
(0.0000°N, 1.0000°E)
Time: 07:24:47
(UTC+02:00)

Daily predictions for brighter satellites

Satellite Brightness Start Highest point End
(mag) Time Altitude Azimuth Time Altitude Azimuth Time Altitude Azimuth
USA 215 3.4 20:15:29 10° NE 20:22:00 83° NW 20:28:32 10° SW
Cosmos 2297 3.8 20:17:16 10° S 20:22:49 57° ESE 20:28:22 10° NNE
Cosmos 923 Rocket 4.0 20:22:14 10° N 20:27:32 86° ENE 20:32:50 10° SSE
Cosmos 1867 4.2 20:25:01 10° SSW 20:30:21 63° WNW 20:35:42 10° NNE
Meteor 1-4 Rocket 3.7 20:28:21 10° SSE 20:31:09 22° E 20:33:53 10° NE
SJ-6B 4.1 20:31:43 10° ESE 20:34:22 18° E 20:36:58 10° NE
Cosmos 1821 Rocket 4.4 20:29:50 10° S 20:36:12 71° W 20:42:33 10° N
Cosmos 1544 3.6 20:35:37 10° SSE 20:38:57 35° E 20:42:17 10° NNE
Cosmos 1378 4.1 20:39:17 10° NNE 20:42:26 26° E 20:45:37 10° SE
Meteor 2-15 Rocket 4.4 20:39:42 10° N 20:45:49 87° E 20:51:57 10° S
Longmarch 3A Rocket 4.2 20:45:07 10° N 20:47:43 17° NE 20:50:32 14° ENE
Milstar 3 3.2 20:40:25 10° SW 20:48:07 47° SSE 20:53:10 16° E
ARIANE 5 DEB (SYLDA) 2.3 20:50:41 10° WNW 20:52:22 35° N 20:53:15 23° NE
NOSS 3-4 (A) 4.0 20:45:35 10° NNW 20:53:02 65° ENE 21:00:44 10° SSE
NOSS 3-4 (C) 4.0 20:45:41 10° NNW 20:53:08 64° ENE 21:00:50 10° SSE
Cosmos 1605 Rocket 3.9 20:48:13 10° S 20:54:22 80° E 21:00:37 10° N
METEOR-M 4.0 20:50:06 10° SSE 20:55:26 74° ENE 21:00:45 10° N
Ariane H10+ 3.6 20:50:04 10° W 20:55:38 68° N 21:10:50 18° ENE
Cosmos 1758 3.2 20:54:27 10° S 20:58:22 62° E 21:02:17 10° NNE
Meteor 1-24 Rocket 4.1 20:53:48 10° NNE 20:59:12 43° E 21:04:47 10° SSE
Cosmos 1125 Rocket 4.2 20:57:20 10° SSW 21:02:25 55° WNW 21:07:28 10° N
HETE-2 4.5 21:01:12 10° W 21:05:19 81° N 21:07:04 33° E
Ariane H10-3 3.4 21:02:20 10° WSW 21:06:00 64° S 21:14:58 22° E
Cosmos 1953 2.2 21:02:23 10° S 21:06:28 75° E 21:10:30 10° N
Resurs 01 Rocket 2.9 21:12:15 23° NE 21:12:15 23° NE 21:14:32 10° NNE
FREGAT/IRIS 2.8 21:10:17 10° S 21:13:22 71° W 21:16:23 10° NNW
COSMOS 2406 3.1 21:09:54 10° N 21:15:33 71° ENE 21:21:11 10° SSE
Meteor 2-5 Rocket 4.3 21:11:00 10° NNW 21:16:46 63° W 21:22:39 10° S
Cosmos 1271 Rocket 3.3 21:13:36 10° SSE 21:16:31 38° SE 21:16:31 38° SE
Cosmos 1707 4.3 21:14:31 10° NNW 21:18:04 36° W 21:21:38 10° SSW
Helios 1B rocket 2.2 21:14:17 10° NNE 21:18:22 79° E 21:22:28 10° S
SeaSat 1 4.1 21:21:11 17° NNE 21:21:11 17° NNE 21:22:53 10° NNE
Cosmos-2242 3.0 21:16:50 10° S 21:21:00 52° E 21:21:52 43° NE
SPELTRA 3.5 21:19:17 10° WNW 21:22:39 46° N 21:24:43 30° NE
ASTRO E2 3.3 21:23:25 10° WSW 21:27:19 50° NNW 21:28:18 40° NNE
Maqsat-H 2.5 21:24:02 10° WNW 21:27:21 37° N 21:28:15 32° NNE
Cosmos 2369 Rocket 4.1 21:25:01 10° SSE 21:25:50 13° SSE 21:25:50 13° SSE
Cosmos 2061 Rocket 4.1 21:24:04 10° SSE 21:30:08 50° E 21:36:14 10° NNE
Cosmos 2123 Rocket 3.8 21:26:06 10° N 21:32:20 80° E 21:38:34 10° S
CZ-3C R/B 3.2 21:33:03 10° NNW 21:33:25 10° N 21:33:35 10° N
Centaur D-1AR AC-36 3.2 21:34:28 10° W 21:38:58 23° SSW 21:39:54 21° S
ATLAS 2A CENTAUR R/B 3.1 21:36:45 10° WNW 21:41:15 88° SSW 21:48:50 32° ESE
ALOS 3.1 21:41:16 10° S 21:45:47 50° WSW 21:50:18 10° NNW
FENGYUN 3A 4.0 21:40:50 10° S 21:46:12 63° WSW 21:51:32 10° NNW
Cosmos 1459 Rocket 3.9 21:42:04 10° S 21:48:27 86° E 21:54:44 10° N
Orbus 21S 3.2 21:49:26 10° WSW 21:52:35 83° NNW 21:53:29 64° NE
In-Cosmos 22 4.0 21:47:55 10° N 21:53:11 83° W 21:53:20 82° SW
Cosmos 2173 Rocket 3.9 21:47:54 10° S 21:54:01 86° W 22:00:09 10° N
Maqsat-B 3.9 21:51:56 10° WNW 21:54:26 33° NNW 21:54:26 33° NNW
ARIANE 44L R/B 4.0 22:00:37 10° W 22:03:36 52° WSW 22:03:36 52° WSW
ARIANE 5 R/B 4.4 22:04:28 10° WSW 22:05:23 14° WSW 22:05:23 14° WSW
CZ-4C R/B 3.3 22:06:26 10° SSW 22:09:09 31° SW 22:09:09 31° SW
Palapa 6 Rocket 4.3 22:04:36 10° WNW 22:10:05 56° NW 22:10:05 56° NW
